Terug naar catalogus

STARLINK-35052

ActiefCommunicatieSSO
NORAD 65540·PAYLOAD·🇺🇸 United States

Gelanceerd Sep 6, 2025 vanaf Cape Canaveral Space Force Station

Loading…

Volgende Passages (komende 24 uur)

TLE

VersSource: CelesTrak SupGP

Epoch: Sep 14, 2026, 20:40 UTC

1 65540C 25200W   26257.86159722 -.00034999  00000+0 -10869-2 0  2579
2 65540  97.2851 324.2918 0001069  93.2462 301.7548 15.33445268    15

Volg STARLINK-35052 in realtime met AllMySat

Download on the App Store